When you browse on this site, cookies collect data to enhance your experience and personalize the content and advertising you see.
Visit our Privacy Policy to learn more. By continuing to use the site, you agree to this use of cookies and data.
  • en France
  • Liste des pays
  • À 7 jours
  • Température de l'eau
  • Carte satellitaire
  • Carte météo
  • Widgets météo
  • user-avatar
    Se connecter

    Météo par heure à Kranevo

    Ce jour, 23 Mars, Samedi

    Heure Température Précipitation Vent Pression Humidité
    00:00 +9°C° 0 mm 3 m/s 764 mmHg 64%
    01:00 +9°C° 0 mm 3 m/s 764 mmHg 63%
    02:00 +8°C° 0 mm 4 m/s 763 mmHg 59%
    03:00 +8°C° 0 mm 4 m/s 763 mmHg 65%
    04:00 +8°C° 0 mm 4 m/s 763 mmHg 72%
    05:00 +7°C° 0 mm 4 m/s 763 mmHg 78%
    06:00 +8°C° 0 mm 4 m/s 763 mmHg 74%
    07:00 +9°C° 0 mm 5 m/s 763 mmHg 71%
    08:00 +9°C° 0 mm 5 m/s 763 mmHg 66%
    09:00 +10°C° 0 mm 5 m/s 763 mmHg 61%
    10:00 +10°C° 0 mm 5 m/s 763 mmHg 56%
    11:00 +10°C° 0 mm 5 m/s 763 mmHg 51%
    12:00 +10°C° 0 mm 5 m/s 763 mmHg 48%
    13:00 +10°C° 0 mm 5 m/s 763 mmHg 45%
    14:00 +12°C° 0 mm 5 m/s 762 mmHg 43%
    15:00 +10°C° 0 mm 5 m/s 762 mmHg 41%
    16:00 +11°C° 0 mm 4 m/s 762 mmHg 40%
    17:00 +11°C° 0 mm 4 m/s 762 mmHg 39%
    18:00 +10°C° 0 mm 3 m/s 763 mmHg 44%
    19:00 +9°C° 0 mm 3 m/s 763 mmHg 49%
    20:00 +7°C° 0 mm 2 m/s 763 mmHg 53%
    21:00 +7°C° 0 mm 2 m/s 763 mmHg 56%
    22:00 +7°C° 0 mm 1 m/s 763 mmHg 59%
    23:00 +5°C° 0 mm 0 m/s 764 mmHg 62%

    Demain, 24 Mars, Dimanche

    Heure Température Précipitation Vent Pression Humidité
    00:00 +6°C° 0 mm 1 m/s 764 mmHg 61%
    01:00 +6°C° 0 mm 1 m/s 763 mmHg 60%
    02:00 +5°C° 0 mm 2 m/s 763 mmHg 60%
    03:00 +4°C° 0 mm 2 m/s 763 mmHg 58%
    04:00 +3°C° 0 mm 3 m/s 763 mmHg 57%
    05:00 +3°C° 0 mm 3 m/s 763 mmHg 56%
    06:00 +4°C° 0 mm 3 m/s 763 mmHg 54%
    07:00 +5°C° 0 mm 3 m/s 763 mmHg 53%
    08:00 +5°C° 0 mm 4 m/s 763 mmHg 51%
    09:00 +8°C° 0 mm 3 m/s 763 mmHg 47%
    10:00 +9°C° 0 mm 3 m/s 763 mmHg 44%
    11:00 +11°C° 0 mm 3 m/s 763 mmHg 40%
    12:00 +11°C° 0 mm 3 m/s 763 mmHg 39%
    13:00 +12°C° 0 mm 3 m/s 762 mmHg 38%
    14:00 +13°C° 0 mm 3 m/s 762 mmHg 37%
    15:00 +12°C° 0 mm 3 m/s 761 mmHg 41%
    16:00 +11°C° 0 mm 3 m/s 761 mmHg 44%
    17:00 +11°C° 0 mm 3 m/s 760 mmHg 47%
    18:00 +10°C° 0 mm 2 m/s 760 mmHg 53%
    19:00 +8°C° 0 mm 2 m/s 760 mmHg 60%
    20:00 +7°C° 0 mm 2 m/s 760 mmHg 67%
    21:00 +6°C° 0 mm 2 m/s 760 mmHg 68%
    22:00 +6°C° 0 mm 2 m/s 760 mmHg 69%
    23:00 +6°C° 0 mm 2 m/s 760 mmHg 71%

    Après-demain, 25 Mars, Lundi

    Heure Température Précipitation Vent Pression Humidité
    00:00 +6°C° 0 mm 2 m/s 760 mmHg 71%
    01:00 +6°C° 0 mm 2 m/s 760 mmHg 71%
    02:00 +5°C° 0 mm 3 m/s 759 mmHg 71%
    03:00 +5°C° 0 mm 3 m/s 759 mmHg 70%
    04:00 +5°C° 0 mm 3 m/s 758 mmHg 70%
    05:00 +5°C° 0 mm 3 m/s 758 mmHg 70%
    06:00 +7°C° 0 mm 3 m/s 758 mmHg 66%
    07:00 +8°C° 0 mm 3 m/s 758 mmHg 62%
    08:00 +9°C° 0 mm 3 m/s 757 mmHg 59%
    09:00 +10°C° 0 mm 3 m/s 757 mmHg 53%
    10:00 +12°C° 0 mm 3 m/s 757 mmHg 48%
    11:00 +14°C° 0 mm 4 m/s 757 mmHg 42%
    12:00 +15°C° 0 mm 4 m/s 756 mmHg 43%
    13:00 +15°C° 0 mm 5 m/s 756 mmHg 44%
    14:00 +15°C° 0 mm 6 m/s 755 mmHg 44%
    15:00 +14°C° 0 mm 6 m/s 755 mmHg 48%
    16:00 +14°C° 0 mm 6 m/s 754 mmHg 52%
    17:00 +13°C° 0 mm 6 m/s 754 mmHg 56%
    18:00 +10°C° 0 mm 5 m/s 754 mmHg 61%
    19:00 +9°C° 0 mm 5 m/s 754 mmHg 66%
    20:00 +8°C° 0 mm 4 m/s 754 mmHg 71%
    21:00 +8°C° 0 mm 4 m/s 754 mmHg 73%
    22:00 +7°C° 0 mm 4 m/s 754 mmHg 75%
    23:00 +7°C° 0 mm 4 m/s 754 mmHg 77%

    26 Mars, Mardi

    Heure Température Précipitation Vent Pression Humidité
    00:00 +7°C° 0 mm 4 m/s 754 mmHg 79%
    01:00 +7°C° 0 mm 4 m/s 754 mmHg 82%
    02:00 +7°C° 0 mm 4 m/s 754 mmHg 85%
    03:00 +6°C° 0 mm 4 m/s 754 mmHg 86%
    04:00 +7°C° 0 mm 3 m/s 754 mmHg 87%
    05:00 +7°C° 0 mm 3 m/s 753 mmHg 88%
    06:00 +8°C° 0 mm 3 m/s 754 mmHg 83%
    07:00 +9°C° 0 mm 3 m/s 754 mmHg 78%
    08:00 +10°C° 0 mm 3 m/s 754 mmHg 72%
    09:00 +12°C° 0 mm 3 m/s 755 mmHg 65%
    10:00 +14°C° 0 mm 3 m/s 755 mmHg 57%
    11:00 +16°C° 0 mm 3 m/s 755 mmHg 50%
    12:00 +17°C° 0 mm 3 m/s 755 mmHg 50%
    13:00 +18°C° 0 mm 3 m/s 755 mmHg 49%
    14:00 +18°C° 0 mm 3 m/s 756 mmHg 49%
    15:00 +15°C° 0 mm 5 m/s 756 mmHg 58%
    16:00 +12°C° 0 mm 7 m/s 756 mmHg 67%
    17:00 +8°C° 0 mm 9 m/s 757 mmHg 76%
    18:00 +9°C° 0.2 mm 8 m/s 757 mmHg 76%
    19:00 +8°C° 0.2 mm 7 m/s 758 mmHg 77%
    20:00 +8°C° 0.2 mm 5 m/s 759 mmHg 77%
    21:00 +8°C° 0.2 mm 5 m/s 759 mmHg 76%
    22:00 +8°C° 0.2 mm 5 m/s 760 mmHg 75%
    23:00 +8°C° 0.2 mm 5 m/s 760 mmHg 73%

    27 Mars, Mercredi

    Heure Température Précipitation Vent Pression Humidité
    00:00 +7°C° 0 mm 5 m/s 761 mmHg 72%
    01:00 +5°C° 0 mm 6 m/s 761 mmHg 70%
    02:00 +5°C° 0 mm 6 m/s 761 mmHg 69%
    03:00 +4°C° 0 mm 6 m/s 761 mmHg 68%
    04:00 +4°C° 0 mm 6 m/s 762 mmHg 67%
    05:00 +3°C° 0 mm 6 m/s 762 mmHg 65%
    06:00 +4°C° 0 mm 6 m/s 762 mmHg 62%
    07:00 +5°C° 0 mm 5 m/s 763 mmHg 59%
    08:00 +5°C° 0 mm 5 m/s 763 mmHg 55%
    09:00 +6°C° 0 mm 5 m/s 764 mmHg 51%
    10:00 +8°C° 0 mm 5 m/s 764 mmHg 46%
    11:00 +10°C° 0 mm 4 m/s 764 mmHg 41%
    12:00 +10°C° 0 mm 4 m/s 764 mmHg 41%
    13:00 +11°C° 0 mm 4 m/s 764 mmHg 41%
    14:00 +11°C° 0 mm 3 m/s 764 mmHg 42%
    15:00 +11°C° 0 mm 4 m/s 764 mmHg 43%
    16:00 +10°C° 0 mm 4 m/s 764 mmHg 44%
    17:00 +10°C° 0 mm 4 m/s 764 mmHg 45%
    18:00 +9°C° 0 mm 3 m/s 765 mmHg 50%
    19:00 +7°C° 0 mm 3 m/s 765 mmHg 54%
    20:00 +6°C° 0 mm 2 m/s 766 mmHg 59%
    21:00 +6°C° 0 mm 2 m/s 766 mmHg 59%
    22:00 +6°C° 0 mm 2 m/s 766 mmHg 59%
    23:00 +5°C° 0 mm 2 m/s 766 mmHg 59%

    28 Mars, Jeudi

    Heure Température Précipitation Vent Pression Humidité
    00:00 +4°C° 0 mm 3 m/s 766 mmHg 58%
    01:00 +4°C° 0 mm 4 m/s 766 mmHg 57%
    02:00 +3°C° 0 mm 5 m/s 767 mmHg 57%
    03:00 +3°C° 0 mm 5 m/s 767 mmHg 59%
    04:00 +2°C° 0 mm 5 m/s 767 mmHg 60%
    05:00 +2°C° 0 mm 5 m/s 767 mmHg 62%
    06:00 +2°C° 0 mm 5 m/s 767 mmHg 60%
    07:00 +3°C° 0 mm 5 m/s 768 mmHg 58%
    08:00 +4°C° 0 mm 6 m/s 768 mmHg 56%
    09:00 +4°C° 0 mm 6 m/s 768 mmHg 51%
    10:00 +5°C° 0 mm 6 m/s 768 mmHg 47%
    11:00 +7°C° 0 mm 6 m/s 769 mmHg 43%
    12:00 +7°C° 0 mm 6 m/s 768 mmHg 42%
    13:00 +8°C° 0 mm 6 m/s 768 mmHg 40%
    14:00 +8°C° 0 mm 6 m/s 768 mmHg 38%
    15:00 +7°C° 0 mm 6 m/s 768 mmHg 40%
    16:00 +7°C° 0 mm 6 m/s 768 mmHg 41%
    17:00 +5°C° 0 mm 6 m/s 768 mmHg 42%
    18:00 +5°C° 0 mm 5 m/s 768 mmHg 47%
    19:00 +3°C° 0 mm 5 m/s 768 mmHg 52%
    20:00 +3°C° 0 mm 4 m/s 768 mmHg 56%
    21:00 +3°C° 0 mm 4 m/s 768 mmHg 57%
    22:00 +3°C° 0 mm 4 m/s 768 mmHg 58%
    23:00 +2°C° 0 mm 3 m/s 768 mmHg 58%
    Voir plus